Location: Petruro
(41.0333°N, 14.7833°E)
Time: 13:19:41
(UTC+00:00)

FALCON 9 DEB - Pass Details

Date: 20 June 2021
Orbit: 363 x 379 km, 53.0° (Epoch: 30 July)

Event Time Altitude Azimuth Distance (km) Brightness Sun altitude
Rises 02:07:32 0° 312° (NW) 2,277 6.8 -12.6°
Reaches altitude 10° 02:09:41 10° 320° (NW) 1,417 5.8 -12.3°
Maximum altitude 02:12:42 41° 33° (NNE) 573 4.3 -11.9°
Drops below altitude 10° 02:15:42 10° 106° (ESE) 1,401 6.1 -11.5°
Sets 02:17:56 0° 114° (ESE) 2,303 7.1 -11.2°
